Flag for Slovakia Weather past 2 weeks in Prešov, Slovakia

Now
41 °F

Light rain. Mostly cloudy.


Feels Like: 35 °F
Forecast: 24 / 40 °F
Wind: 10 mph from South

Location: Kosice - Barca

Current Time: Jan 30, 2015 at 8:02:45 PM

Latest Report: Jan 30, 2015 at 7:30 PM


Visibility: N/A

Pressure: 28.82 "Hg

Humidity: 87%

Dew point: 37 °F

Location of PrešovLocation

Historic Weather in Prešov — Graph

°F

Prešov temperature yesterday

Maximum temperature yesterday: 30 °F (at 12:00 AM)
Minimum temperature yesterday: 28 °F (at 4:00 AM)
Average temperature yesterday: 30 °F

Past Weeks' High & Low Weather Summary

 TemperatureHumidityPressure
High45 °F (Jan 23, 10:30 AM)100% (Jan 15, 7:30 PM)30.21 "Hg (Jan 15, 7:30 PM)
Low21 °F (Jan 28, 8:00 AM)61% (Jan 17, 1:00 PM)28.82 "Hg (Jan 30, 6:30 PM)
Average36 °F87%29.91 "Hg
* Reported Jan 15 7:00 PM — Jan 30 7:00 PM, Prešov, Weather by CustomWeather, © 2014

Note: Actual official high and low records may vary slightly from our data, if they occured in-between our weather recording intervals... More about our weather records

Advertising

Prešov weather history for previous 24 hours

 ConditionsComfort  
Time TempWeatherWind HumidityBarometerVisibility
7:00 PM
Jan 30
39 °FLight rain. Mostly cloudy.9 mph93%28.82 "HgN/A
6:30 PM39 °FLight rain. Mostly cloudy.6 mph93%28.82 "HgN/A
6:00 PM39 °FLight rain. Mostly cloudy.12 mph93%28.85 "Hg5 mi
5:30 PM39 °FLight rain. Mostly cloudy.2 mph93%28.85 "Hg5 mi
5:00 PM37 °FLight rain. Mostly cloudy.8 mph93%28.85 "Hg5 mi
4:30 PM36 °FLight rain. Overcast.7 mph100%28.85 "Hg2 mi
4:00 PM37 °FLight rain. Overcast.7 mph93%28.88 "Hg2 mi
3:30 PM37 °FLight rain. Low clouds.7 mph93%28.91 "Hg2 mi
3:00 PM37 °FLight rain. Overcast.3 mph87%28.91 "Hg4 mi
2:30 PM37 °FLight rain. Partly sunny.9 mph87%28.91 "HgN/A
2:00 PM37 °FPartly sunny.9 mph81%28.94 "HgN/A
1:30 PM37 °FPartly sunny.7 mph81%28.94 "HgN/A
1:00 PM37 °FPartly sunny.8 mph81%28.97 "HgN/A
12:30 PM36 °FPartly sunny.9 mph87%29.00 "HgN/A
12:00 PM36 °FPartly sunny.12 mph87%29.03 "HgN/A
11:30 AM34 °FPartly sunny.1 mph93%29.06 "HgN/A
11:00 AM34 °FPartly sunny.5 mph93%29.06 "HgN/A
10:30 AM32 °FPartly sunny.5 mph100%29.09 "Hg4 mi
10:00 AM32 °FLight snow. Ice fog.2 mph100%29.09 "Hg2 mi
9:30 AM32 °FLight snow. Ice fog.2 mph100%29.09 "Hg1 mi
9:00 AM34 °FSnow. Overcast.7 mph93%29.12 "Hg1 mi
8:30 AM32 °FLight snow. Overcast.9 mph100%29.12 "HgN/A
8:00 AM32 °FLight snow. Ice fog.2 mph93%29.15 "Hg2 mi
7:30 AM32 °FIce fog.3 mph93%29.15 "Hg1 mi
7:00 AM30 °FIce fog.7 mph100%29.18 "Hg2 mi
6:30 AM30 °FLight snow. Ice fog.5 mph100%29.18 "Hg2 mi
6:00 AM30 °FLight snow. Ice fog.5 mph100%29.21 "Hg2 mi
5:30 AM30 °FLight snow. Ice fog.5 mph100%29.21 "Hg2 mi
5:00 AM30 °FLight snow. Ice fog.3 mph100%29.21 "Hg1 mi
4:30 AM30 °FSnow flurries. Ice fog.3 mph100%29.24 "Hg1 mi
4:00 AM30 °FIce fog.2 mph100%29.27 "Hg2 mi
3:30 AM30 °FIce fog.2 mph100%29.27 "Hg2 mi
3:00 AM30 °FIce fog.2 mph100%29.30 "Hg2 mi
2:30 AM30 °FIce fog.3 mph93%29.30 "Hg2 mi
2:00 AM30 °FIce fog.6 mph93%29.33 "Hg2 mi
1:30 AM30 °FIce fog.7 mph93%29.33 "Hg2 mi
1:00 AM30 °FIce fog.9 mph93%29.36 "Hg2 mi
12:30 AM30 °FIce fog.8 mph93%29.36 "Hg3 mi
12:00 AM30 °FIce fog.9 mph93%29.36 "Hg3 mi
11:30 PM
Jan 29
30 °FIce fog.9 mph93%29.39 "Hg2 mi
11:00 PM30 °FIce fog.9 mph100%29.39 "Hg2 mi
10:30 PM30 °FIce fog.6 mph100%29.39 "Hg2 mi
10:00 PM30 °FLight snow. Ice fog.5 mph100%29.39 "Hg1 mi
9:30 PM30 °FSnow. Ice fog.5 mph100%29.42 "Hg1 mi
9:00 PM30 °FSnow. Ice fog.5 mph93%29.45 "Hg1 mi
8:30 PM30 °FSnow. Ice fog.5 mph93%29.45 "Hg1 mi
8:00 PM30 °FLight snow. Ice fog.7 mph93%29.45 "Hg2 mi
Weather by CustomWeather, © 2014

See weather overviewHow to use our weather pages